Ballina Observation History
Time Wind Speed Temp Pressure Rel. Hum Rain
29/09:00am N 6-10 kts 26.1°c 1012.0 hPa 59% 0.0mm
29/08:30am NW 7-10 kts 25.3°c 1012.4 hPa 62% 0.0mm
29/08:00am N 8-11 kts 24.3°c 1012.2 hPa 68% 0.0mm
29/07:30am N 9-14 kts 23.2°c 1011.8 hPa 73% 0.0mm
29/07:00am N 10-15 kts 22.2°c 1011.4 hPa 76% 0.0mm
29/06:30am N 9-13 kts 21.1°c 1011.3 hPa 81% 0.0mm
29/06:00am N 7-10 kts 20.3°c 1011.2 hPa 85% 0.0mm
29/05:30am N 7-9 kts 20.0°c 1010.9 hPa 86% 0.0mm
29/05:00am N 6-8 kts 20.4°c 1010.9 hPa 85% 0.0mm
29/04:30am N 6-11 kts 20.6°c 1010.9 hPa 84% 0.0mm
29/04:00am NNW 5-7 kts 20.6°c 1010.9 hPa 84% 0.0mm
29/03:30am NNW 6-9 kts 21.1°c 1011.1 hPa 82% 0.0mm
29/03:00am N 11-15 kts 21.5°c 1011.2 hPa 80% 0.0mm
29/02:30am N 12-18 kts 21.5°c 1011.0 hPa 80% 0.0mm
29/02:00am N 13-22 kts 21.7°c 1011.1 hPa 79% 0.0mm
29/01:30am N 14-21 kts 21.7°c 1011.4 hPa 78% 0.0mm
29/01:00am N 15-23 kts 21.8°c 1011.8 hPa 78% 0.0mm
29/12:30am N 15-22 kts 22.1°c 1012.1 hPa 77% 0.0mm
29/12:00am N 14-20 kts 22.2°c 1012.3 hPa 78% 0.0mm
Time Wind Speed Temp Pressure Rel. Hum Rain
28/11:30pm N 17-23 kts 22.5°c 1012.4 hPa 76% 0.0mm
28/11:11pm N 17-27 kts 22.7°c 1012.5 hPa 75% 0.0mm
28/11:00pm N 17-23 kts 22.5°c 1012.7 hPa 75% 0.0mm
28/10:30pm N 15-20 kts 22.6°c 1012.9 hPa 75% 0.0mm
28/10:05pm N 15-25 kts 22.7°c 1012.8 hPa 75% 0.0mm
28/10:00pm N 15-21 kts 22.7°c 1012.8 hPa 76% 0.0mm
28/09:30pm N 15-23 kts 22.8°c 1012.5 hPa 75% 0.0mm
28/09:13pm NNE 15-25 kts 22.7°c 1012.3 hPa 75% 0.0mm
28/09:00pm NNE 15-23 kts 22.9°c 1012.2 hPa 74% 0.0mm
28/08:30pm N 15-24 kts 22.9°c 1012.0 hPa 74% 0.0mm
28/08:01pm N 16-26 kts 23.1°c 1012.0 hPa 74% 0.0mm
28/08:00pm N 17-26 kts 23.1°c 1011.9 hPa 73% 0.0mm
28/07:30pm NNE 16-26 kts 23.3°c 1011.7 hPa 71% 0.0mm
28/07:23pm NNE 16-26 kts 23.5°c 1011.5 hPa 70% 0.0mm
28/07:00pm NNE 17-25 kts 24.0°c 1011.2 hPa 66% 0.0mm
28/06:37pm NNE 15-27 kts 24.5°c 1011.2 hPa 63% 0.0mm
28/06:30pm NNE 15-22 kts 24.6°c 1011.2 hPa 64% 0.0mm
28/06:00pm NNE 17-29 kts 25.2°c 1011.1 hPa 60% 0.0mm
28/05:30pm NNE 17-27 kts 26.1°c 1011.3 hPa 55% 0.0mm
28/05:07pm NNE 17-27 kts 26.7°c 1011.3 hPa 57% 0.0mm
28/05:00pm NNE 15-22 kts 26.7°c 1011.3 hPa 56% 0.0mm
28/04:54pm NNE 15-25 kts 27.0°c 1011.5 hPa 58% 0.0mm
28/04:30pm NNE 18-25 kts 27.0°c 1011.7 hPa 57% 0.0mm
28/04:20pm NNE 18-28 kts 26.4°c 1011.8 hPa 56% 0.0mm
28/04:00pm NNE 16-23 kts 27.3°c 1012.0 hPa 54% 0.0mm
28/03:30pm NNE 12-20 kts 27.7°c 1012.4 hPa 53% 0.0mm
28/03:00pm NE 14-21 kts 28.1°c 1012.9 hPa 55% 0.0mm
28/02:30pm NE 14-20 kts 27.5°c 1013.2 hPa 59% 0.0mm
28/02:00pm NE 17-23 kts 27.8°c 1013.7 hPa 61% 0.0mm
28/01:30pm NE 18-23 kts 26.4°c 1014.1 hPa 57% 0.0mm
28/01:00pm NE 16-21 kts 27.1°c 1014.5 hPa 56% 0.0mm
28/12:30pm NE 16-21 kts 27.1°c 1015.0 hPa 56% 0.0mm
28/12:00pm NE 14-20 kts 26.8°c 1015.2 hPa 60% 0.0mm
28/11:30am NNE 12-18 kts 27.4°c 1015.4 hPa 58% 0.0mm
28/11:00am NNE 11-18 kts 26.5°c 1015.8 hPa 57% 0.0mm
28/10:30am N 10-15 kts 26.6°c 1016.2 hPa 58% 0.0mm
28/10:00am NNE 13-19 kts 25.4°c 1016.5 hPa 56% 0.0mm
28/09:30am N 11-17 kts 24.7°c 1016.8 hPa 59% 0.0mm
28/09:00am NNE 11-16 kts 24.3°c 1016.8 hPa 60% 0.0mm
28/08:30am N 12-17 kts 23.5°c 1017.0 hPa 64% 0.0mm
28/08:00am N 7-12 kts 22.4°c 1017.0 hPa 73% 0.0mm
28/07:30am N 3-5 kts 20.6°c 1017.0 hPa 81% 0.0mm
28/07:00am CALM 0 kts 19.1°c 1016.9 hPa 93% 0.0mm
28/06:30am CALM 0 kts 16.0°c 1016.5 hPa 96% 0.0mm
28/06:00am CALM 0 kts 14.8°c 1016.3 hPa 95% 0.0mm
28/05:30am CALM 0 kts 14.5°c 1016.3 hPa 95% 0.0mm
28/05:00am CALM 0 kts 15.4°c 1016.1 hPa 95% 0.0mm
28/04:30am CALM 0 kts 15.3°c 1016.1 hPa 95% 0.0mm
28/04:00am CALM 0 kts 15.3°c 1016.3 hPa 94% 0.0mm
28/03:30am CALM 0 kts 16.3°c 1016.2 hPa 94% 0.0mm
28/03:18am CALM 0 kts 16.2°c 1016.3 hPa 94% 0.0mm
28/03:00am CALM 0 kts 16.2°c 1016.5 hPa 93% 0.0mm
28/02:58am CALM 0 kts 15.3°c 1016.5 hPa 91% 0.0mm
28/02:43am N 2-3 kts 16.5°c 1016.5 hPa 92% 0.0mm
28/02:30am N 2-4 kts 16.5°c 1016.6 hPa 91% 0.0mm
28/02:25am N 3-4 kts 16.3°c 1016.7 hPa 90% 0.0mm
28/02:00am N 3 kts 17.3°c 1017.0 hPa 89% 0.0mm
28/01:30am NNW 4-5 kts 18.5°c 1017.2 hPa 90% 0.0mm
28/01:00am N 5-6 kts 18.7°c 1017.4 hPa 87% 0.0mm
28/12:30am N 5-6 kts 18.9°c 1017.8 hPa 88% 0.0mm
28/12:00am N 4-5 kts 19.0°c 1018.0 hPa 85% 0.0mm
Time Wind Speed Temp Pressure Rel. Hum Rain
27/11:30pm N 5-7 kts 19.3°c 1018.2 hPa 86% 0.0mm
27/11:00pm N 4-6 kts 19.8°c 1018.5 hPa 84% 0.0mm
27/10:30pm N 6-8 kts 20.6°c 1018.3 hPa 82% 0.0mm
27/10:00pm N 6-8 kts 20.7°c 1018.3 hPa 80% 0.0mm
27/09:30pm NNE 5-7 kts 20.7°c 1018.3 hPa 80% 0.0mm
27/09:00pm NNE 5-7 kts 21.2°c 1018.1 hPa 77% 0.0mm
27/08:30pm NNE 7-8 kts 21.3°c 1017.8 hPa 76% 0.0mm
27/08:00pm NNE 6-8 kts 21.6°c 1017.8 hPa 72% 0.0mm
27/07:30pm NE 7-11 kts 22.1°c 1017.8 hPa 70% 0.0mm
27/07:00pm NE 10-13 kts 23.3°c 1017.6 hPa 65% 0.0mm
27/06:30pm ENE 10-13 kts 23.9°c 1017.3 hPa 62% 0.0mm
27/06:00pm ENE 11-14 kts 24.4°c 1017.1 hPa 63% 0.0mm
27/05:30pm ENE 10-14 kts 25.0°c 1016.8 hPa 61% 0.0mm
27/05:00pm ENE 11-13 kts 24.8°c 1016.7 hPa 58% 0.0mm
27/04:30pm E 12-15 kts 25.4°c 1016.7 hPa 59% 0.0mm
27/04:00pm ENE 12-17 kts 25.5°c 1016.7 hPa 57% 0.0mm
27/03:30pm ENE 11-18 kts 26.0°c 1016.9 hPa 57% 0.0mm
27/03:00pm E 11-15 kts 25.8°c 1017.2 hPa 56% 0.0mm
27/02:30pm ENE 12-17 kts 25.4°c 1017.3 hPa 55% 0.0mm
27/02:00pm NE 12-17 kts 26.0°c 1017.5 hPa 55% 0.0mm
27/01:30pm ENE 12-17 kts 25.9°c 1017.8 hPa 57% 0.0mm
27/01:00pm ENE 12-17 kts 26.4°c 1017.9 hPa 56% 0.0mm
27/12:30pm ENE 12-16 kts 26.0°c 1018.0 hPa 57% 0.0mm
27/12:00pm ENE 12-17 kts 25.8°c 1018.3 hPa 56% 0.0mm
27/11:30am ENE 12-16 kts 26.0°c 1018.4 hPa 62% 0.0mm
27/11:00am ENE 12-17 kts 25.4°c 1018.5 hPa 62% 0.0mm
27/10:30am ENE 11-17 kts 25.4°c 1018.6 hPa 65% 0.0mm
27/10:00am ENE 11-16 kts 25.0°c 1018.6 hPa 64% 0.0mm
27/09:30am ENE 9-14 kts 24.8°c 1018.4 hPa 67% 0.0mm
27/09:00am ENE 9-12 kts 25.4°c 1018.2 hPa 68% 0.0mm
27/08:30am E 7-11 kts 24.3°c 1018.0 hPa 67% 0.0mm
27/08:00am NNW 1-3 kts 23.4°c 1017.8 hPa 71% 0.0mm
27/07:30am CALM 0 kts 20.9°c 1017.1 hPa 82% 0.0mm
27/07:00am CALM 0 kts 19.0°c 1016.6 hPa 92% 0.0mm
27/06:30am CALM 0 kts 17.2°c 1016.1 hPa 96% 0.0mm
27/06:00am CALM 0 kts 15.3°c 1015.7 hPa 95% 0.0mm
27/05:30am N 4 kts 16.1°c 1015.1 hPa 95% 0.0mm
27/05:00am CALM 0 kts 16.4°c 1015.1 hPa 95% 0.0mm
27/04:48am CALM 0 kts 16.0°c 1014.9 hPa 94% 0.0mm
27/04:30am CALM 0 kts 16.2°c 1014.7 hPa 94% 0.0mm
27/04:12am CALM 0 kts 16.2°c 1014.6 hPa 93% 0.0mm
27/04:00am CALM 0 kts 16.9°c 1014.5 hPa 94% 0.0mm
27/03:45am CALM 0 kts 16.7°c 1014.4 hPa 93% 0.0mm
27/03:30am CALM 0 kts 16.8°c 1014.4 hPa 93% 0.0mm
27/03:27am CALM 0 kts 16.7°c 1014.4 hPa 93% 0.0mm
27/03:26am CALM 0 kts 16.5°c 1014.4 hPa 93% 0.0mm
27/03:02am N 2-3 kts 17.0°c 1014.3 hPa 93% 0.0mm
27/03:00am N 2-3 kts 16.6°c 1014.3 hPa 92% 0.0mm
27/02:30am N 4 kts 18.5°c 1014.2 hPa 92% 0.0mm
27/02:00am N 3-4 kts 18.8°c 1014.5 hPa 91% 0.0mm
27/01:30am NNE 4-5 kts 19.2°c 1014.6 hPa 92% 0.0mm
27/01:00am NNE 3-4 kts 19.0°c 1015.0 hPa 86% 0.0mm
27/12:30am NNE 5-7 kts 19.3°c 1015.1 hPa 87% 0.0mm
27/12:00am NNE 3-4 kts 20.0°c 1015.3 hPa 86% 0.0mm